Regional Weather Roundup
Issued by NWS

Home | Current Version | Previous Version | Text Only | Print | Product List | Glossary On
Versions: 1 2 3 4 5 6 7 8 9 10 11 12 13 14 15 16 17 18 19 20 21 22 23 24 25 26 27 28 29 30 31 32 33 34 35 36 37 38 39 40 41 42 43 44 45 46 47 48 49 50
000
ASUS42 KTBW 300010
RWRFL
FLORIDA REGIONAL WEATHER ROUNDUP
NATIONAL WEATHER SERVICE TAMPA BAY RUSKIN FL
700 PM EST THU JAN 29 2015

NOTE: "FAIR" INDICATES FEW OR NO CLOUDS BELOW 12,000 FEET WITH NO
SIGNIFICANT WEATHER AND/OR OBSTRUCTIONS TO VISIBILITY.


FLZ001>010-012>015-112-114-115-300100-
PANHANDLE FLORIDA

CITY           SKY/WX    TMP DP  RH WIND       PRES   REMARKS
PENSACOLA      CLEAR     60  54  80 S8        30.20S
PENSACOLA NAS  PTCLDY    58  55  90 S6        30.20S
MILTON NAS     PTCLDY    59  52  77 S9        30.19S
CRESTVIEW      CLEAR     59  53  80 S5        30.21F
DUKE FIELD     PTCLDY    57  52  84 S7        30.20S
VALPARAISO     MOCLDY    60  55  84 S6        30.20F
MARY ESTHER    CLEAR     62  53  72 SW7       30.19S
TRI COUNTY     FAIR      57  50  77 S7        30.21F
PANAMA CITY    FAIR      56  50  80 SE7       30.22F
TYNDALL AFB    CLEAR     55  49  81 S10       30.24F
APALACHICOLA   CLEAR     53  45  74 CALM      30.26S

STATION/POSITION SKY/WX   TEMP    WIND        PRES    WAVE   SWELL
                          AIR SEA DIR/SP/G            HT/PER HT/PER
                          (F)     (DEG/KT/KT) (MB)    (FT/S) (FT/S)
30.1N   87.6W              65 63  190/ 10/ 12 1022.1F   2/ 5   2/ 5
29.2N   88.2W              68 69  210/  8/ 10 1023.6F   2/ 5   2/ 5
PANAMA CITY BEAC           59 60  150/ 15/ 17 1022.9F
CAPE SAN BLAS    NOT AVBL
TOWER C                    59     180/  4/  5 1024.7S
28.5N   84.5W              63 68  210/  4/  8 1025.1R   2/ 4   2/ 4

$$
FLZ011-016>038-118-127-128-134-139-239-300100-
NORTH FLORIDA

CITY           SKY/WX    TMP DP  RH WIND       PRES   REMARKS
MARIANNA       CLEAR     57  50  77 SW7       30.21S
TALLAHASSEE    PTCLDY    53  32  44 S7        30.23F
PERRY          CLEAR     52  44  75 SW3       30.27R
CROSS CITY       N/A     55  45  68 W6        30.26R
LAKE CITY      FAIR      54  41  62 CALM      30.24R
GAINESVILLE    CLEAR     56  46  69 CALM      30.24S
MAYPORT NAS    MOCLDY    55  50  83 SE6       30.24S
JACKSONVILLE   MOCLDY    52  49  89 SE6       30.23S
JAX NAS        MOCLDY    61  50  67 E6        30.25R
JAX CRAIG      CLEAR     54  48  80 SE3       30.24S
JAX CECIL      CLEAR     50  46  87 CALM      30.24R
FERNANDINA BEA FAIR      57  52  82 CALM      30.22F
ST AUGUSTINE   PTCLDY    56  52  86 SE3       30.25S

STATION/POSITION SKY/WX   TEMP    WIND        PRES    WAVE   SWELL
                          AIR SEA DIR/SP/G            HT/PER HT/PER
                          (F)     (DEG/KT/KT) (MB)    (FT/S) (FT/S)
SHELL POINT                56      70/  5/  6   N/A
KEATON BEACH               55     230/  6/  7 1024.8S
CEDAR KEY                  60     290/  5/  7 1025.0R
FERNANDINA                 54 55  150/  2/  4 1023.0F
30.7N   81.3W                 57                N/A     2/11   2/11
MAYPORT                    55 57  110/  3/  5 1024.1R
31.4N   80.9W              53 54  130/  6/  6 1023.3F   2/ 8   2/ 8
ST AUGUSTINE               58      80/  1/  2 1024.8R

$$
FLZ040-043>046-052-053-057-058-063-144-300100-
INTERIOR CENTRAL FLORIDA

CITY           SKY/WX    TMP DP  RH WIND       PRES   REMARKS
OCALA          CLEAR     55  43  62 CALM      30.25R
THE VILLAGES     N/A     59  48  67 CALM      30.16R
LEESBURG       FAIR      58  48  69 CALM      30.25R
SANFORD        CLEAR     59  48  67 SE7       30.24R
ORLANDO EXEC   CLEAR     61  46  57 SE9       30.23R
ORLANDO INTL   PTCLDY    60  49  66 SE7       30.24R
KISSIMMEE      CLEAR     64  50  59 CALM      30.24S
WINTER HAVEN   CLEAR     61  47  59 CALM      30.25R
LAKELAND       CLEAR     61  46  59 CALM      30.24S
BARTOW         FAIR      57  48  72 CALM      30.25R
OKEECHOBEE     PTCLDY    59  50  72 E3        30.25R

$$
FLZ041-047-054-059-064-141-147-300100-
EAST CENTRAL FLORIDA

CITY           SKY/WX    TMP DP  RH WIND       PRES   REMARKS
DAYTONA BEACH  PTCLDY    60  49  66 CALM      30.25R
DELAND         CLEAR    N/A N/A N/A CALM      30.25R
NEW SMYRNA BEA CLEAR     59  48  67 CALM      30.25R
JFK SPACE CTR  CLEAR     54  49  85 CALM      30.24R
TITUSVILLE     CLEAR     54  48  82 SE5       30.25S
CAPE CANAVERAL CLEAR     55  48  78 CALM      30.23S
PATRICK AFB    CLEAR     62  52  70 NW2       30.24S
MELBOURNE      CLEAR     59  50  72 N3        30.25R
VERO BEACH     CLEAR     55  49  80 CALM      30.24S
FT PIERCE      CLEAR     54  50  86 CALM      30.24R
STUART         CLOUDY    64  48  55 CALM      30.24R

STATION/POSITION SKY/WX   TEMP    WIND        PRES    WAVE   SWELL
                          AIR SEA DIR/SP/G            HT/PER HT/PER
                          (F)     (DEG/KT/KT) (MB)    (FT/S) (FT/S)
28.5N   80.2W              66 69  170/  4/  6 1023.9F
28.9N   78.5W              65 75  140/  4/  8 1024.5F   7/10   7/10
TRIDENT PIER               59 63     CALM     1023.6R
28.4N   80.5W                 63                N/A     2/11   2/11
27.6N   80.2W                 66                N/A     4/13   2/13

$$
FLZ050-056-061-142-242-148-248-149-249-151-251-155-255-
160-260-300100-
WEST CENTRAL FLORIDA

CITY           SKY/WX    TMP DP  RH WIND       PRES   REMARKS
CRYSTAL RIVER  FAIR      55  46  71 CALM      30.26R
INVERNESS      FAIR      57  46  67 CALM      30.26R
BROOKSVILLE    CLEAR     55  45  68 NW6       30.26R
ZEPHYRHILLS    FAIR      55  45  67 CALM      30.25S
CLEARWATER     CLEAR     59  51  75 NW7       30.25R
TAMPA INTL     CLEAR     61  46  57 VRB6      30.25R
TAMPA EXEC     CLEAR     59  50  72 CALM      30.25R
PLANT CITY       N/A    N/A N/A N/A MISG        N/A
MACDILL AFB    CLEAR     60  49  69 N6        30.24R
PETER O KNIGHT CLEAR     64  50  59 NW3       30.24S
ST PETERSBURG  CLEAR     65  47  52 NW6       30.22R
SARASOTA       CLEAR     60  48  64 NW3       30.23R
VENICE         FAIR      63  57  82 NW8       30.24S

STATION/POSITION SKY/WX   TEMP    WIND        PRES    WAVE   SWELL
                          AIR SEA DIR/SP/G            HT/PER HT/PER
                          (F)     (DEG/KT/KT) (MB)    (FT/S) (FT/S)
CEDAR KEY                  60     290/  5/  7 1025.0R
28.5N   84.5W              63 68  210/  4/  8 1025.1R   2/ 4   2/ 4
27.3N   84.3W                 72                N/A     2/ 5
CLEARWATER BEACH           60 61  330/  6/  6 1023.9R
MIDDLE TAMPA BAY           63     320/  7/  9 1024.1R
VENICE                     63 64  330/ 10/ 10 1023.5R

$$
FLZ066-069-070-075>078-162-262-165-265-300100-
SOUTHWEST FLORIDA AND KEYS

CITY           SKY/WX    TMP DP  RH WIND       PRES   REMARKS
PUNTA GORDA    CLEAR     60  49  66 E6        30.24R
FT MYERS       MOCLDY    65  50  58 NE6       30.21R
SOUTHWEST INTL CLOUDY    67  49  52 NE6       30.22R
NAPLES         CLEAR     65  54  67 NW5       30.21R
MARCO ISLAND   PTCLDY    64  54  68 N3        30.21R
IMMOKALEE      CLEAR    N/A N/A N/A CALM      30.22R
MARATHON       MOCLDY    67  58  72 NE13      30.19R
KEY WEST NAS   PTCLDY    66  54  65 NE8       30.19R
KEY WEST INTL  CLEAR     66  56  70 NE10      30.20R

STATION/POSITION SKY/WX   TEMP    WIND        PRES    WAVE   SWELL
                          AIR SEA DIR/SP/G            HT/PER HT/PER
                          (F)     (DEG/KT/KT) (MB)    (FT/S) (FT/S)
VENICE                     63 64  330/ 10/ 10 1023.5R
NAPLES                     66 74  310/  8/  8 1023.5R
26.0N   85.6W              68 72  100/  6/ 10 1023.2R   3/ 5   3/ 5
DRY TORTUGAS               69      70/ 15/ 16 1022.0R
NW FL BAY                  68     100/ 12/ 14 1022.3S
SAND KEY                   68      50/ 19/ 22 1022.0R
SOMBRERO KEY               68      50/ 19/ 21 1022.2S
LONG KEY                   67 65   60/ 13/ 14 1022.9R
MOLASSES REEF              68 76   80/ 14/ 16 1022.2R

$$
FLZ067-068-071>074-168-172>174-300100-
SOUTHEAST FLORIDA

CITY           SKY/WX    TMP DP  RH WIND       PRES   REMARKS
W PALM BEACH   MOCLDY    67  48  50 E7        30.21S
FT LAUDER-EXEC CLEAR     65  49  56 NE5       30.21S
FT LAUDERDALE  PTCLDY    65  51  60 NE7       30.20S
POMPANO BEACH  CLEAR     67  49  52 E6        30.21S
PEMBROKE PINES PTCLDY    65  51  60 NE7       30.22S
OPA LOCKA      CLEAR     64  52  64 SE6       30.21S
MIAMI          PTCLDY    66  51  58 E10       30.20F
WEST KENDALL   CLEAR     62  51  67 E7        30.20F
HOMESTEAD      CLEAR     63  54  71 E6        30.20S

STATION/POSITION SKY/WX   TEMP    WIND        PRES    WAVE   SWELL
                          AIR SEA DIR/SP/G            HT/PER HT/PER
                          (F)     (DEG/KT/KT) (MB)    (FT/S) (FT/S)
PORT EVERGLADES            68      70/  8/ 12 1022.6
VIRGINIA KEY               68 71  100/ 11/ 14 1023.0F
LAKE WORTH                 67 74   90/  6/ 10 1022.9S


USA.gov is the U.S. government's official web portal to all federal, state and local government web resources and services.